Theta_e
318 318 318 317 317 318 319 319 319 320 318 316 316 315 316 315 314 314 312 312 313 314 314 318 320 321 321 321 319 318 322 323 323 323 324 325 325 326 325 324 324 322 323 324
318 319 318 317 318 318 317 318 318 317 317 315 317 316 315 315 315 314 312 312 313 313 314 317 320 321 321 319 321 317 320 322 323 324 324 325 326 325 325 324 324 324 325 323
319 320 319 319 319 319 318 319 318 318 318 315 315 315 315 315 315 316 312 312 312 313 314 315 317 319 320 318 318 320 315 316 317 325 325 325 326 326 326 321 325 327 324 325
319 319 320 319 320 319 320 318 319 318 318 318 315 317 315 316 316 318 312 311 312 312 313 314 315 315 321 321 318 317 317 317 317 325 326 326 326 326 326 326 326 326 327 327
322 319 320 320 320 318 320 319 318 318 317 316 317 315 315 319 320 317 315 312 311 311 313 314 314 316 321 322 320 320 320 319 319 326 325 325 325 326 327 326 326 325 326 326
321 318 318 320 319 318 319 318 315 315 314 316 315 316 315 316 319 318 317 312 312 311 312 314 316 316 318 323 321 320 324 319 322 325 323 320 321 321 325 327 326 323 324 325
319 319 319 319 320 316 316 314 317 317 317 320 317 317 316 317 317 318 319 314 312 312 312 314 313 314 316 322 321 321 324 320 321 324 325 322 321 322 324 326 328 327 328 327
321 322 319 318 319 319 314 314 316 318 316 315 318 321 320 318 320 320 319 315 312 312 313 314 313 315 317 319 324 323 322 321 318 322 325 320 320 321 321 325 329 329 328 328
320 321 319 318 318 318 317 315 314 315 317 319 318 320 322 325 324 321 316 314 313 313 312 314 314 315 317 318 322 324 324 321 319 319 321 320 319 319 319 319 325 328 327 328
318 321 319 319 317 316 317 315 317 313 319 320 318 322 325 322 325 323 319 314 313 312 312 313 314 315 317 319 319 322 324 320 319 319 319 319 319 318 318 319 320 325 324 323
316 319 320 319 321 319 318 319 318 313 314 317 318 321 320 325 327 327 321 314 313 313 313 313 314 316 317 317 319 320 324 320 320 318 319 319 318 317 318 320 319 321 321 321
316 317 319 325 322 322 318 318 320 319 319 319 318 321 321 326 327 327 323 315 312 313 314 313 314 315 316 316 318 320 324 319 317 317 318 318 319 317 316 320 319 320 320 319
316 316 318 318 329 326 326 325 320 321 321 327 327 322 322 326 326 325 322 314 313 313 313 312 312 313 315 316 319 320 323 318 315 314 316 316 318 318 316 319 319 320 320 319
319 315 318 321 319 327 328 330 326 323 325 324 327 326 325 327 328 325 319 314 313 313 314 313 313 312 315 317 319 321 322 318 317 317 318 317 315 317 317 317 319 319 320 319
315 317 317 317 317 324 322 326 328 325 323 325 324 327 325 325 327 325 318 313 313 313 314 314 314 313 314 317 318 321 322 320 318 318 318 318 315 315 316 317 318 319 319 319
317 318 316 318 318 319 321 322 327 326 324 327 324 325 324 326 328 327 319 315 314 314 315 315 315 314 314 316 318 320 321 319 319 319 318 318 315 315 315 316 317 318 318 319
317 322 321 321 325 324 324 321 327 326 325 324 327 324 324 329 329 327 324 316 315 315 315 315 315 315 316 317 318 319 320 319 320 319 319 318 314 315 315 315 315 317 317 318
318 322 324 331 330 330 325 324 325 327 326 323 324 323 324 323 323 325 322 317 316 315 315 315 315 316 316 317 319 320 319 319 319 319 319 318 313 314 315 315 313 314 316 316
319 323 327 331 325 328 329 327 326 327 327 324 324 323 323 323 325 324 324 321 319 316 315 315 316 316 316 317 319 319 318 318 316 317 319 319 314 314 315 315 314 312 313 313
322 322 325 321 330 333 326 326 325 324 328 324 324 322 323 323 327 326 323 322 320 319 316 315 316 316 316 317 318 318 317 316 316 317 320 319 317 312 314 315 314 313 311 311
324 323 328 321 321 324 322 325 323 330 327 323 324 323 322 325 325 323 322 323 321 320 317 315 316 316 316 317 318 317 315 315 317 316 319 319 319 314 312 315 314 314 313 312
326 324 324 319 324 328 322 325 329 325 322 323 323 322 323 324 322 322 321 322 322 320 318 315 315 316 316 317 317 316 314 318 317 316 318 319 319 316 313 313 314 314 313 312
326 323 325 323 324 320 324 324 322 319 322 323 321 320 322 323 322 321 321 321 320 319 317 315 315 316 316 316 317 317 316 317 317 316 317 319 319 318 315 313 313 314 313 312
323 320 323 323 322 322 323 322 321 320 322 324 322 322 321 322 322 323 322 321 320 319 318 316 315 316 316 316 317 317 317 317 317 317 318 318 319 319 318 316 312 313 313 313
321 321 321 321 321 320 321 322 321 322 322 324 323 322 323 323 324 323 323 322 321 319 321 317 315 316 316 316 316 317 317 317 316 317 318 319 319 320 319 318 316 312 312 314
320 321 324 323 318 321 321 321 320 322 324 324 324 325 324 323 323 324 322 321 321 321 320 319 317 316 316 316 317 317 317 317 317 317 318 318 319 320 320 319 319 317 314 315
Wind_Speed
4 4 8 9 7 5 4 3 5 4 5 5 7 9 16 6 6 8 9 9 8 8 7 10 8 5 2 2 4 7 9 11 13 10 9 8 10 9 10 8 6 4 2 8
4 12 7 7 4 4 3 3 5 5 3 6 8 10 8 7 9 11 13 10 9 6 6 8 9 6 3 3 2 3 5 9 13 11 8 7 12 10 10 7 9 8 10 13
9 4 7 7 5 4 5 3 5 7 2 3 1 7 5 5 3 4 6 7 6 10 9 7 9 7 5 2 2 3 4 8 10 12 9 8 7 9 11 6 11 14 16 14
7 6 8 5 5 8 4 8 6 4 2 5 4 5 6 6 6 7 9 10 12 10 6 6 9 8 8 1 3 3 3 7 7 8 10 10 8 11 10 8 8 16 19 21
10 8 6 5 10 7 10 3 5 3 4 2 2 2 6 2 6 10 12 13 12 11 10 9 11 13 10 5 3 1 4 6 3 6 9 11 10 13 9 10 11 12 13 16
10 5 9 12 8 9 3 3 6 4 4 1 7 7 5 5 8 7 4 12 12 12 9 9 18 13 10 9 5 3 2 3 4 6 7 9 7 9 13 12 14 11 7 5
4 5 4 5 5 3 5 6 4 4 3 6 3 3 8 8 10 9 8 14 14 13 10 9 8 12 11 12 9 5 2 2 4 5 3 5 7 9 12 12 12 10 7 6
10 9 10 4 8 10 7 9 5 6 3 5 3 5 6 7 6 8 7 10 13 13 11 9 11 17 15 13 14 9 4 5 4 6 6 5 6 8 10 10 11 11 12 18
8 8 3 7 5 11 5 4 6 4 1 2 3 7 10 4 4 4 7 11 14 14 10 11 12 19 17 15 14 12 8 6 6 7 8 6 5 6 8 9 10 13 15 15
7 2 5 7 5 1 9 6 2 2 2 4 4 4 6 9 5 5 6 9 11 10 9 8 11 19 18 17 13 10 11 8 8 8 9 7 5 4 6 8 8 10 10 6
6 6 4 6 7 9 3 3 4 4 4 5 3 6 6 6 9 8 9 10 14 16 14 11 11 22 21 16 15 12 15 11 10 9 9 7 5 5 5 9 10 9 8 9
8 7 6 8 3 5 7 10 9 5 5 3 4 8 6 7 9 6 8 9 8 9 14 11 14 20 19 16 16 14 17 13 11 9 9 7 7 5 6 8 11 11 14 15
8 3 3 5 3 1 4 5 5 5 4 7 5 6 3 4 3 4 7 9 8 9 8 7 8 13 19 18 17 16 19 16 12 11 9 9 8 7 7 8 10 11 13 15
15 6 11 15 5 6 5 5 6 7 5 5 6 4 5 2 4 1 5 9 9 10 12 10 9 11 19 21 20 18 21 18 15 13 11 10 9 9 8 9 9 8 11 13
7 8 6 5 10 11 13 8 12 9 8 8 8 9 7 4 4 6 8 8 11 10 11 14 13 10 18 22 22 20 23 21 18 15 13 11 9 11 10 10 10 10 10 13
0 4 8 7 9 13 11 16 15 17 3 2 6 5 7 4 4 4 9 13 14 16 16 15 12 13 17 22 26 23 23 23 20 18 17 13 11 11 11 11 11 12 12 13
1 4 4 5 5 7 16 15 13 8 5 9 7 9 7 5 8 8 6 13 15 15 16 15 17 17 23 27 31 28 25 21 21 20 19 16 14 14 13 12 12 13 13 13
2 4 2 3 6 8 5 8 16 19 11 7 4 9 12 9 9 5 10 11 13 15 17 16 15 20 25 30 32 30 25 24 23 21 20 18 17 16 15 15 15 15 15 14
8 5 2 5 4 4 1 5 8 8 11 14 10 5 7 3 2 6 7 10 15 18 18 22 30 28 25 31 37 32 27 26 24 23 23 20 19 19 17 17 17 17 17 17
5 3 5 3 7 10 6 6 5 5 6 10 13 9 9 7 4 9 6 7 10 10 21 25 28 26 28 32 36 34 31 29 28 26 26 24 21 21 20 19 18 17 16 14
4 2 12 2 4 6 5 8 7 8 7 8 15 14 9 7 14 3 5 4 7 13 21 24 28 33 37 37 38 32 32 31 34 29 28 27 24 23 22 19 19 17 15 14
8 7 5 2 3 8 6 5 12 8 3 6 8 9 14 17 7 8 8 5 5 9 17 28 26 28 32 37 38 31 31 39 36 33 31 30 27 25 24 23 20 19 18 17
10 7 7 9 6 4 14 11 13 7 6 6 8 6 10 13 10 8 7 7 6 9 18 26 27 27 31 38 40 33 37 40 37 35 34 32 30 29 27 26 25 22 20 20
3 3 5 4 6 6 12 3 4 4 5 4 4 6 8 7 5 6 5 4 7 8 13 23 24 25 28 36 40 41 39 42 41 37 36 36 34 33 32 29 29 29 27 26
7 8 7 2 2 4 4 8 6 6 3 6 6 6 8 6 5 6 5 6 5 7 13 22 25 27 30 36 39 36 39 44 38 38 35 35 36 37 36 35 35 34 34 34
3 6 8 8 8 7 8 15 8 10 8 7 8 6 5 6 7 4 6 7 6 5 10 17 22 25 28 34 34 35 39 45 41 35 34 34 32 34 33 34 35 38 38 37
Wind_Direction
165 143 206 203 203 190 199 203 249 268 243 182 237 252 274 207 205 185 185 180 188 200 208 198 198 204 270 320 347 13 22 7 353 344 351 356 0 360 30 31 38 332 180 156
84 221 187 201 175 181 166 229 268 275 278 162 272 272 266 186 224 202 189 184 186 186 179 199 202 200 241 351 294 352 3 360 359 359 353 355 353 5 44 61 60 68 92 141
187 184 166 171 200 175 203 175 233 241 314 240 174 307 299 266 250 174 182 180 170 185 182 198 200 205 219 18 15 356 347 342 346 2 17 14 25 55 80 61 70 55 100 102
209 198 174 169 196 168 253 217 230 268 39 272 135 271 284 279 274 226 193 184 183 184 180 195 191 199 207 164 67 41 348 336 346 19 43 63 37 65 75 88 81 80 85 81
213 158 177 173 213 165 232 142 196 229 209 108 272 71 262 351 282 257 213 195 185 180 178 193 193 201 200 197 114 52 18 22 50 69 73 69 56 68 69 77 90 87 84 77
203 192 166 198 214 175 171 106 49 56 96 57 235 160 278 216 215 256 177 189 186 174 184 197 195 200 201 200 167 137 38 36 115 105 77 60 45 69 86 72 82 72 44 52
170 187 195 145 151 87 94 71 339 338 8 225 105 99 234 253 242 229 224 189 176 170 177 189 186 203 202 200 193 174 104 119 144 180 133 72 63 57 65 74 90 102 131 148
184 226 170 178 169 183 180 155 157 230 228 260 136 232 250 228 290 272 216 179 158 165 180 185 189 200 201 206 206 202 166 160 164 158 149 119 93 81 77 80 84 94 123 131
174 227 136 165 155 147 179 153 197 136 163 60 244 288 312 255 355 26 115 145 167 168 179 185 192 201 203 208 208 206 195 182 176 173 162 150 132 98 84 93 106 90 109 136
196 175 206 198 96 29 168 161 110 17 197 231 279 286 240 291 288 167 163 180 172 162 178 184 192 202 208 210 210 200 203 199 187 174 167 161 152 137 86 89 108 128 119 102
135 136 268 106 177 167 125 163 58 124 149 187 237 259 220 239 245 223 194 189 180 175 181 184 195 202 210 214 206 201 198 201 202 188 174 165 158 153 114 96 109 108 99 95
184 153 193 200 195 174 206 187 168 161 231 213 183 263 247 264 278 204 163 192 176 192 179 176 191 196 206 212 199 199 197 197 203 197 183 175 161 156 150 110 107 111 115 105
169 196 158 324 6 313 172 179 150 120 95 190 181 263 186 265 277 224 159 168 168 172 176 167 180 187 200 205 197 194 195 194 191 189 186 177 175 170 158 136 113 117 119 115
160 158 191 221 203 160 186 181 184 155 137 184 216 209 266 183 47 253 152 163 167 183 184 179 187 193 203 202 199 195 195 196 192 193 192 184 182 181 170 164 142 124 134 128
144 205 182 192 196 191 211 193 181 190 191 169 214 205 229 178 183 193 170 151 158 170 200 193 190 193 202 202 204 201 196 196 197 199 201 196 184 184 179 171 162 157 143 142
34 216 176 214 200 193 214 216 194 207 124 94 146 226 202 172 170 185 156 170 183 186 200 205 197 182 192 202 203 203 197 196 197 200 200 194 184 180 182 179 174 166 160 152
316 138 106 220 185 132 243 208 190 198 188 161 187 212 156 176 205 220 192 184 194 193 190 205 194 194 193 196 205 204 200 198 196 197 194 190 184 178 181 185 182 178 173 169
205 112 102 156 114 207 270 210 185 198 200 192 165 174 180 194 209 209 178 183 196 189 193 195 207 196 195 198 205 204 200 196 196 199 193 186 182 181 182 182 182 182 184 185
181 134 149 148 209 292 232 148 144 158 226 198 198 158 190 163 84 277 179 186 200 197 191 197 198 200 190 194 202 201 195 195 197 202 199 192 185 183 184 189 189 189 189 190
136 190 156 168 176 217 201 202 138 79 249 199 193 187 167 131 183 230 157 192 204 189 196 189 192 189 185 195 199 195 192 194 198 202 205 202 194 190 190 193 192 192 195 199
144 115 206 166 217 275 249 146 136 147 232 182 187 197 159 184 216 213 159 190 200 191 183 187 179 183 192 189 193 187 188 191 204 204 205 205 203 200 199 196 199 201 202 206
161 150 186 117 169 240 167 105 158 200 216 196 187 185 185 211 212 207 194 214 218 179 173 177 180 186 185 187 187 189 187 200 204 204 204 205 206 205 205 205 203 204 206 211
193 183 185 189 203 224 179 170 209 162 163 193 180 173 199 207 208 213 226 206 192 204 176 178 177 178 182 187 189 191 197 197 199 201 204 206 206 207 209 207 210 210 212 219
231 151 147 129 209 197 192 213 127 151 151 137 156 174 175 206 209 232 258 216 188 203 187 177 173 179 186 190 194 199 190 197 194 194 200 206 207 207 212 212 214 215 215 220
200 149 172 221 331 49 296 216 159 151 180 141 143 170 204 171 212 229 238 239 237 219 209 178 184 186 193 190 198 193 190 191 190 190 195 199 205 208 211 215 216 218 223 222
209 175 182 217 175 161 202 212 176 164 181 173 159 168 192 188 216 199 240 242 209 204 209 197 199 194 192 192 196 192 190 191 188 187 190 197 198 204 205 209 217 226 229 231